Bay City, TX

7:28 AM CST on November 23, 2017 (GMT -0600)
Bay City

Weather History for KBYY - March, 2013

Change the Weather History Date:

Monday, March 11, 2013

  Actual Average (KLBX) Record (KLBX)
Temperature  
Mean Temperature 54 °F -  
Max Temperature 66 °F 68 °F 82 °F (2009)
Min Temperature 43 °F 52 °F 37 °F (2011)
Degree Days  
Heating Degree Days 10    
Growing Degree Days 4 (Base 50)    
Moisture  
Dew Point 30 °F    
Average Humidity 43    
Maximum Humidity 81    
Minimum Humidity 16    
Precipitation  
Precipitation 0.00 in - - ()
Sea Level Pressure  
Sea Level Pressure 30.08 in    
Wind  
Wind Speed 11 mph (NNW)    
Max Wind Speed 21 mph    
Max Gust Speed 29 mph    
Visibility 10 miles    
Events      
Averages and records for this station are not official NWS values.
T = Trace of Precipitation, MM = Missing Value Source: NWS Daily Summary

Daily Weather History Graph

Daily Weather History Graph

Search for Another Location

Airport or City:

Trip Planner

Search our weather history database for the weather conditions in past years. The results will help you decide how hot, cold, wet, or windy it might be!

Date:

Astronomy

Mar. 11, 2013 Rise Set
Actual Time 7:37 AM CDT 7:29 PM CDT
Civil Twilight 7:13 AM CDT 7:53 PM CDT
Nautical Twilight 6:46 AM CDT 8:20 PM CDT
Astronomical Twilight 6:18 AM CDT 8:48 PM CDT
Moon 7:14 AM CDT (3/11) 7:38 PM CDT (3/11)
Length of Visible Light 12h 39m
Length of Day
11h 52m
Waning Crescent, 0% of the Moon is Illuminated
Mar 11
Waning Crescent
Mar 11
New
Mar 19
First Quarter
Mar 27
Full
Apr 2
Last Quarter

Hourly Weather History & Observations

Time (CDT) Temp. Windchill Dew Point Humidity Pressure Visibility Wind Dir Wind Speed Gust Speed Precip Events Conditions
12:15 AM 55.2 °F - 38.5 °F 53% 30.06 in 10.0 mi North 15.0 mph 19.6 mph N/A   Scattered Clouds
12:35 AM 54.9 °F - 38.5 °F 54% 30.07 in 10.0 mi North 10.4 mph 18.4 mph N/A   Scattered Clouds
12:55 AM 55.0 °F - 38.3 °F 53% 30.06 in 10.0 mi North 16.1 mph 23.0 mph N/A   Mostly Cloudy
1:15 AM 54.7 °F - 38.1 °F 54% 30.08 in 10.0 mi North 13.8 mph 23.0 mph N/A   Mostly Cloudy
1:35 AM 54.5 °F - 37.8 °F 53% 30.07 in 10.0 mi North 16.1 mph 26.5 mph N/A   Mostly Cloudy
1:55 AM 54.0 °F - 37.6 °F 54% 30.06 in 10.0 mi North 13.8 mph 20.7 mph N/A   Scattered Clouds
2:15 AM 53.6 °F - 37.4 °F 54% 30.07 in 10.0 mi North 9.2 mph 18.4 mph N/A   Mostly Cloudy
2:35 AM 53.2 °F - 37.8 °F 56% 30.05 in 10.0 mi North 12.7 mph - N/A   Mostly Cloudy
2:55 AM 52.9 °F - 37.6 °F 56% 30.06 in 10.0 mi North 8.1 mph 17.3 mph N/A   Scattered Clouds
3:15 AM 52.5 °F - 37.6 °F 57% 30.03 in 10.0 mi North 11.5 mph - N/A   Scattered Clouds
3:35 AM 52.0 °F - 37.8 °F 58% 30.04 in 10.0 mi NNW 8.1 mph - N/A   Mostly Cloudy
3:55 AM 51.6 °F - 37.9 °F 60% 30.07 in 10.0 mi North 5.8 mph - N/A   Overcast
4:15 AM 51.4 °F - 37.8 °F 60% 30.08 in 10.0 mi NNE 3.5 mph - N/A   Mostly Cloudy
4:35 AM 50.5 °F - 37.8 °F 62% 30.07 in 10.0 mi North 6.9 mph - N/A   Scattered Clouds
4:55 AM 50.2 °F - 37.8 °F 62% 30.07 in 10.0 mi North 6.9 mph - N/A   Scattered Clouds
5:15 AM 50.4 °F - 37.4 °F 61% 30.07 in 10.0 mi North 6.9 mph - N/A   Scattered Clouds
5:35 AM 50.0 °F - 37.4 °F 62% 30.07 in 10.0 mi North 5.8 mph - N/A   Clear
5:55 AM 48.9 °F - 37.4 °F 64% 30.07 in 10.0 mi North 6.9 mph - N/A   Clear
6:15 AM 47.7 °F - 37.2 °F 67% 30.08 in 10.0 mi NNW 5.8 mph - N/A   Clear
6:35 AM 47.3 °F - 36.9 °F 67% 30.08 in 10.0 mi NNW 4.6 mph - N/A   Clear
6:55 AM 46.6 °F - 36.9 °F 69% 30.10 in 10.0 mi NNW 3.5 mph - N/A   Clear
7:15 AM 45.7 °F 44.4 °F 37.2 °F 72% 30.11 in 10.0 mi WNW 3.5 mph - N/A   Clear
7:35 AM 44.4 °F 42.9 °F 37.8 °F 77% 30.11 in 10.0 mi WNW 3.5 mph - N/A   Clear
7:55 AM 44.1 °F 42.5 °F 37.6 °F 78% 30.11 in 10.0 mi NW 3.5 mph - N/A   Clear
8:15 AM 43.5 °F - 37.9 °F 81% 30.13 in 10.0 mi Calm Calm - N/A   Clear
8:35 AM 45.1 °F - 39.4 °F 80% 30.14 in 10.0 mi Calm Calm - N/A   Clear
8:55 AM 48.0 °F - 40.5 °F 75% 30.14 in 10.0 mi NW 4.6 mph - N/A   Clear
9:15 AM 50.9 °F - 39.6 °F 65% 30.14 in 10.0 mi NNW 8.1 mph - N/A   Clear
9:35 AM 53.2 °F - 36.5 °F 53% 30.14 in 10.0 mi North 11.5 mph - N/A   Clear
9:55 AM 55.0 °F - 35.1 °F 47% 30.15 in 10.0 mi NNW 11.5 mph - N/A   Clear
10:15 AM 56.5 °F - 33.4 °F 42% 30.15 in 10.0 mi NNW 12.7 mph 25.3 mph N/A   Clear
10:35 AM 57.4 °F - 32.2 °F 39% 30.15 in 10.0 mi NW 15.0 mph 19.6 mph N/A   Clear
10:55 AM 58.1 °F - 30.7 °F 35% 30.15 in 10.0 mi NW 12.7 mph 24.2 mph N/A   Clear
11:15 AM 58.6 °F - 30.6 °F 34% 30.14 in 10.0 mi NW 17.3 mph 21.9 mph N/A   Clear
11:35 AM 59.9 °F - 29.5 °F 32% 30.14 in 10.0 mi NW 20.7 mph - N/A   Clear
11:55 AM 59.9 °F - 27.0 °F 29% 30.13 in 10.0 mi NW 20.7 mph 26.5 mph N/A   Clear
12:15 PM 60.6 °F - 26.8 °F 28% 30.13 in 10.0 mi NW 20.7 mph 26.5 mph N/A   Clear
12:35 PM 61.7 °F - 25.2 °F 25% 30.12 in 10.0 mi NW 17.3 mph 25.3 mph N/A   Clear
12:55 PM 62.6 °F - 24.1 °F 23% 30.11 in 10.0 mi NW 17.3 mph 26.5 mph N/A   Clear
1:15 PM 63.1 °F - 22.3 °F 21% 30.10 in 10.0 mi NW 16.1 mph 26.5 mph N/A   Clear
1:35 PM 63.9 °F - 21.9 °F 20% 30.09 in 10.0 mi NW 20.7 mph 28.8 mph N/A   Clear
1:55 PM 64.4 °F - 21.9 °F 20% 30.08 in 10.0 mi NW 17.3 mph 23.0 mph N/A   Clear
2:15 PM 64.8 °F - 22.3 °F 20% 30.07 in 10.0 mi NW 20.7 mph 26.5 mph N/A   Clear
2:35 PM 64.8 °F - 21.0 °F 19% 30.06 in 10.0 mi WNW 16.1 mph 26.5 mph N/A   Clear
2:55 PM 65.3 °F - 21.4 °F 19% 30.05 in 10.0 mi NW 15.0 mph 24.2 mph N/A   Clear
3:15 PM 65.5 °F - 20.8 °F 18% 30.04 in 10.0 mi NW 13.8 mph - N/A   Clear
3:35 PM 66.0 °F - 21.0 °F 18% 30.04 in 10.0 mi NW 15.0 mph 24.2 mph N/A   Clear
3:55 PM 66.0 °F - 21.6 °F 18% 30.03 in 10.0 mi NW 16.1 mph 26.5 mph N/A   Clear
4:15 PM 66.0 °F - 20.8 °F 18% 30.02 in 10.0 mi NW 13.8 mph 23.0 mph N/A   Clear
4:35 PM 66.2 °F - 20.7 °F 18% 30.02 in 10.0 mi NW 16.1 mph 24.2 mph N/A   Clear
4:55 PM 66.4 °F - 19.9 °F 17% 30.01 in 10.0 mi NW 16.1 mph 23.0 mph N/A   Clear
5:15 PM 66.4 °F - 18.5 °F 16% 30.01 in 10.0 mi NNW 16.1 mph 24.2 mph N/A   Clear
5:35 PM 65.8 °F - 18.9 °F 17% 30.01 in 10.0 mi NW 17.3 mph 25.3 mph N/A   Clear
5:55 PM 65.3 °F - 19.8 °F 18% 30.01 in 10.0 mi NW 13.8 mph 20.7 mph N/A   Clear
6:15 PM 64.8 °F - 20.5 °F 18% 30.01 in 10.0 mi NNW 12.7 mph - N/A   Clear
6:35 PM 64.0 °F - 20.8 °F 19% 30.01 in 10.0 mi NNW 10.4 mph 17.3 mph N/A   Clear
6:55 PM 62.8 °F - 21.0 °F 20% 30.01 in 10.0 mi NW 8.1 mph - N/A   Clear
7:15 PM 61.2 °F - 21.7 °F 22% 30.02 in 10.0 mi NNW 9.2 mph - N/A   Clear
7:35 PM 59.0 °F - 21.6 °F 24% 30.03 in 10.0 mi North 6.9 mph - N/A   Clear
7:55 PM 55.9 °F - 22.3 °F 27% 30.04 in 10.0 mi North 5.8 mph - N/A   Clear
8:15 PM 54.1 °F - 22.3 °F 29% 30.04 in 10.0 mi North 4.6 mph - N/A   Clear
8:35 PM 53.4 °F - 22.1 °F 30% 30.05 in 10.0 mi North 3.5 mph - N/A   Clear
8:55 PM 52.0 °F - 22.8 °F 32% 30.06 in 10.0 mi Calm Calm - N/A   Clear
9:15 PM 49.6 °F - 25.0 °F 38% 30.07 in 10.0 mi Calm Calm - N/A   Clear
9:35 PM 49.6 °F - 24.4 °F 37% 30.08 in 10.0 mi NNE 3.5 mph - N/A   Clear
9:55 PM 47.5 °F - 27.1 °F 45% 30.09 in 10.0 mi NNE 3.5 mph - N/A   Clear
10:15 PM 46.4 °F - 28.8 °F 50% 30.10 in 10.0 mi Calm Calm - N/A   Clear
10:35 PM 48.2 °F - 25.3 °F 41% 30.11 in 10.0 mi Calm Calm - N/A   Clear
10:55 PM 46.6 °F - 27.7 °F 48% 30.11 in 10.0 mi Calm Calm - N/A   Clear
11:15 PM 45.9 °F - 28.4 °F 51% 30.12 in 10.0 mi Calm Calm - N/A   Clear
11:35 PM 44.6 °F - 28.4 °F 53% 30.11 in 10.0 mi Calm Calm - N/A   Clear
11:55 PM 44.2 °F - 28.6 °F 54% 30.11 in 10.0 mi Calm Calm - N/A   Clear